TimeCDT,TemperatureF,Dew PointF,Humidity,Sea Level PressureIn,VisibilityMPH,Wind Direction,Wind SpeedMPH,Gust SpeedMPH,PrecipitationIn,Events,Conditions,WindDirDegrees,DateUTC
12:14 AM,42.8,32.0,66,30.02,10.0,North,4.6,-,N/A,,Clear,350,2012-09-26 05:14:00
12:34 AM,42.8,30.2,61,30.02,10.0,NNW,4.6,-,N/A,,Clear,330,2012-09-26 05:34:00
12:54 AM,42.8,30.2,61,30.02,10.0,NNW,3.5,-,N/A,,Clear,340,2012-09-26 05:54:00
1:13 AM,39.2,30.2,70,30.02,10.0,Calm,Calm,-,N/A,,Clear,0,2012-09-26 06:13:00
1:33 AM,39.2,30.2,70,30.02,10.0,North,3.5,-,N/A,,Clear,350,2012-09-26 06:33:00
1:53 AM,39.2,30.2,70,30.02,10.0,North,5.8,-,N/A,,Clear,10,2012-09-26 06:53:00
2:14 AM,39.2,32.0,75,30.02,10.0,North,8.1,-,N/A,,Clear,360,2012-09-26 07:14:00
2:33 AM,39.2,32.0,75,30.02,10.0,North,6.9,-,N/A,,Clear,360,2012-09-26 07:33:00
2:54 AM,41.0,32.0,70,30.03,10.0,North,3.5,-,N/A,,Clear,350,2012-09-26 07:54:00
3:14 AM,39.2,32.0,75,30.03,10.0,Calm,Calm,-,N/A,,Clear,0,2012-09-26 08:14:00
3:33 AM,37.4,30.2,75,30.04,10.0,Calm,Calm,-,N/A,,Clear,0,2012-09-26 08:33:00
3:54 AM,37.4,30.2,75,30.05,10.0,North,3.5,-,N/A,,Clear,360,2012-09-26 08:54:00
4:14 AM,35.6,30.2,81,30.04,10.0,North,3.5,-,N/A,,Clear,350,2012-09-26 09:14:00
4:33 AM,35.6,30.2,81,30.05,10.0,Calm,Calm,-,N/A,,Clear,0,2012-09-26 09:33:00
4:53 AM,35.6,30.2,81,30.06,10.0,Calm,Calm,-,N/A,,Clear,0,2012-09-26 09:53:00
5:13 AM,35.6,30.2,81,30.07,10.0,Calm,Calm,-,N/A,,Clear,0,2012-09-26 10:13:00
5:34 AM,35.6,30.2,81,30.07,10.0,North,3.5,-,N/A,,Clear,10,2012-09-26 10:34:00
5:54 AM,33.8,28.4,81,30.09,10.0,Calm,Calm,-,N/A,,Clear,0,2012-09-26 10:54:00
6:14 AM,33.8,28.4,81,30.09,10.0,Calm,Calm,-,N/A,,Clear,0,2012-09-26 11:14:00
6:33 AM,32.0,28.4,87,30.09,10.0,WNW,3.5,-,N/A,,Clear,290,2012-09-26 11:33:00
6:53 AM,30.2,28.4,93,30.09,10.0,WNW,3.5,-,N/A,,Clear,290,2012-09-26 11:53:00
7:13 AM,33.8,30.2,87,30.11,10.0,Calm,Calm,-,N/A,,Clear,0,2012-09-26 12:13:00
7:34 AM,33.8,30.2,87,30.12,10.0,West,5.8,-,N/A,,Clear,260,2012-09-26 12:34:00
7:54 AM,33.8,30.2,87,30.12,10.0,WNW,4.6,-,N/A,,Clear,300,2012-09-26 12:54:00
8:14 AM,37.4,33.8,87,30.13,10.0,NW,3.5,-,N/A,,Clear,320,2012-09-26 13:14:00
8:34 AM,41.0,35.6,81,30.12,10.0,NNW,4.6,-,N/A,,Clear,340,2012-09-26 13:34:00
8:54 AM,42.8,37.4,81,30.13,10.0,North,4.6,-,N/A,,Clear,350,2012-09-26 13:54:00
9:14 AM,46.4,37.4,71,30.14,10.0,NNW,4.6,-,N/A,,Clear,340,2012-09-26 14:14:00
9:34 AM,48.2,37.4,66,30.13,10.0,North,8.1,-,N/A,,Clear,10,2012-09-26 14:34:00
9:53 AM,51.8,37.4,58,30.14,10.0,North,5.8,-,N/A,,Clear,10,2012-09-26 14:53:00
10:13 AM,53.6,37.4,54,30.15,10.0,North,6.9,-,N/A,,Clear,360,2012-09-26 15:13:00
10:33 AM,55.4,37.4,51,30.16,10.0,NNE,3.5,-,N/A,,Clear,20,2012-09-26 15:33:00
10:54 AM,57.2,35.6,44,30.15,10.0,NNE,5.8,-,N/A,,Clear,20,2012-09-26 15:54:00
11:14 AM,57.2,33.8,41,30.16,10.0,North,8.1,-,N/A,,Clear,10,2012-09-26 16:14:00
11:33 AM,59.0,33.8,39,30.16,10.0,North,5.8,-,N/A,,Clear,360,2012-09-26 16:33:00
11:54 AM,59.0,33.8,39,30.16,10.0,North,9.2,-,N/A,,Clear,10,2012-09-26 16:54:00
12:13 PM,60.8,32.0,34,30.16,10.0,North,8.1,-,N/A,,Clear,350,2012-09-26 17:13:00
12:33 PM,60.8,30.2,31,30.16,10.0,NNW,6.9,-,N/A,,Clear,340,2012-09-26 17:33:00
12:53 PM,60.8,30.2,31,30.16,10.0,NNE,8.1,-,N/A,,Clear,30,2012-09-26 17:53:00
1:13 PM,62.6,30.2,30,30.16,10.0,North,6.9,-,N/A,,Clear,360,2012-09-26 18:13:00
1:34 PM,62.6,30.2,30,30.16,10.0,NNW,6.9,-,N/A,,Clear,340,2012-09-26 18:34:00
1:54 PM,64.4,30.2,28,30.14,10.0,North,4.6,-,N/A,,Clear,360,2012-09-26 18:54:00
2:14 PM,64.4,28.4,26,30.14,10.0,NNW,8.1,-,N/A,,Clear,340,2012-09-26 19:14:00
2:33 PM,64.4,28.4,26,30.14,10.0,NNW,5.8,-,N/A,,Clear,330,2012-09-26 19:33:00
2:53 PM,64.4,28.4,26,30.14,10.0,North,6.9,-,N/A,,Clear,10,2012-09-26 19:53:00
3:14 PM,64.4,28.4,26,30.13,10.0,NNE,4.6,-,N/A,,Clear,30,2012-09-26 20:14:00
3:33 PM,66.2,28.4,24,30.13,10.0,NW,6.9,-,N/A,,Clear,320,2012-09-26 20:33:00
3:53 PM,66.2,26.6,23,30.13,10.0,NNW,4.6,-,N/A,,Clear,340,2012-09-26 20:53:00
4:14 PM,66.2,26.6,23,30.13,10.0,NNW,4.6,-,N/A,,Clear,340,2012-09-26 21:14:00
4:34 PM,66.2,24.8,21,30.13,10.0,North,8.1,-,N/A,,Clear,10,2012-09-26 21:34:00
4:54 PM,66.2,26.6,23,30.13,10.0,North,6.9,-,N/A,,Clear,350,2012-09-26 21:54:00
5:13 PM,66.2,26.6,23,30.13,10.0,NE,4.6,-,N/A,,Clear,40,2012-09-26 22:13:00
5:33 PM,66.2,26.6,23,30.13,10.0,NNE,6.9,-,N/A,,Clear,30,2012-09-26 22:33:00
5:54 PM,64.4,24.8,22,30.13,10.0,NNE,5.8,-,N/A,,Clear,20,2012-09-26 22:54:00
6:14 PM,64.4,24.8,22,30.14,10.0,NE,6.9,-,N/A,,Clear,40,2012-09-26 23:14:00
6:34 PM,62.6,24.8,24,30.14,10.0,NE,5.8,-,N/A,,Clear,40,2012-09-26 23:34:00
6:53 PM,60.8,26.6,27,30.15,10.0,NE,4.6,-,N/A,,Clear,50,2012-09-26 23:53:00
7:34 PM,53.6,26.6,35,30.16,10.0,East,3.5,-,N/A,,Clear,80,2012-09-27 00:34:00
7:54 PM,51.8,26.6,38,30.17,10.0,East,3.5,-,N/A,,Clear,80,2012-09-27 00:54:00
8:14 PM,50.0,26.6,40,30.17,10.0,ENE,3.5,-,N/A,,Clear,70,2012-09-27 01:14:00
8:34 PM,48.2,28.4,46,30.17,5.0,Calm,Calm,-,N/A,,Haze,0,2012-09-27 01:34:00
8:54 PM,44.6,26.6,49,30.18,7.0,ENE,3.5,-,N/A,,Clear,60,2012-09-27 01:54:00
9:13 PM,44.6,28.4,53,30.18,10.0,East,3.5,-,N/A,,Clear,80,2012-09-27 02:13:00
9:34 PM,44.6,30.2,57,30.18,7.0,Calm,Calm,-,N/A,,Clear,0,2012-09-27 02:34:00
9:54 PM,44.6,28.4,53,30.19,10.0,Calm,Calm,-,N/A,,Clear,0,2012-09-27 02:54:00
10:13 PM,44.6,28.4,53,30.19,10.0,NE,3.5,-,N/A,,Clear,50,2012-09-27 03:13:00
10:33 PM,41.0,26.6,57,30.20,10.0,Calm,Calm,-,N/A,,Clear,0,2012-09-27 03:33:00
10:53 PM,41.0,28.4,61,30.20,10.0,Calm,Calm,-,N/A,,Clear,0,2012-09-27 03:53:00
11:13 PM,41.0,30.2,65,30.20,10.0,Calm,Calm,-,N/A,,Clear,0,2012-09-27 04:13:00
11:34 PM,39.2,28.4,65,30.20,10.0,Calm,Calm,-,N/A,,Clear,0,2012-09-27 04:34:00
11:54 PM,39.2,30.2,70,30.20,10.0,Calm,Calm,-,N/A,,Clear,0,2012-09-27 04:54:00